{"data":{"norad_id":48570,"intl_designator":"2021-041T","name":"STARLINK-2220","alt_names":[],"object_type":"PAYLOAD","status":"ACTIVE","operator":null,"country":"US","launch_date":"2021-05-15","launch_site_code":"AFETR","launch_vehicle":null,"mission":null,"orbit_class":"UNKNOWN","rcs_meters":null,"size_class":null,"mass_kg":null,"dimensions":null,"purposes":["comms"],"wikipedia_slug":null,"has_3d_model":false,"image_url":null,"decayed_at":null,"tle_current":{"epoch":"2026-05-25T06:00:02.000160Z","epoch_age_seconds":60369,"freshness":"FRESH","line1":"1 48570U 21041T   26145.25002315  .01009101  00000+0  14376-1 0  9991","line2":"2 48570  53.1385 151.5764 0001242  94.0471  55.8232 15.53224910  5400","mean_motion":15.5322491,"eccentricity":0.0001242,"inclination_deg":53.1385,"raan_deg":151.5764,"arg_perigee_deg":94.0471,"mean_anomaly_deg":55.8232,"bstar":0.014376,"rev_number":540,"period_min":92.710333882039,"perigee_km":406.4747570373,"apogee_km":408.16026393771,"semimajor_km":6785.4545104875,"source":"CELESTRAK","updated_at":"2026-05-25T13:38:16.726923Z"}}}